Vorticity
6 2 4 4 2 3 4 4 3 3 3 4 4 6 6 6 5 5 5 4 5 5 7 8 7 4 0 3 6 7 5 2 2 3 4 5 8 6 6 6 5 6 6
14 1 4 5 0 3 1 5 3 3 3 3 4 5 6 6 5 5 4 4 4 5 9 10 4 4 1 7 5 4 3 2 3 3 4 8 7 5 6 5 6 7 6
1 13 -1 4 -1 -0 5 5 4 3 3 3 3 4 5 6 5 5 4 4 4 4 7 10 7 6 5 5 6 3 6 2 3 3 4 9 6 6 6 6 7 6 5
5 8 10 1 -0 3 1 6 5 4 1 1 3 3 4 6 5 5 4 4 4 5 6 8 10 0 6 6 7 5 3 4 4 3 5 8 5 6 6 7 7 5 4
6 -1 5 9 6 6 -1 3 4 5 4 3 5 0 2 5 5 4 4 4 4 4 6 7 8 6 7 6 7 7 5 4 6 4 6 8 5 7 7 7 6 5 4
16 3 0 2 4 10 0 2 4 3 4 3 2 3 5 4 6 5 4 4 4 4 6 6 6 6 9 8 7 7 6 4 5 5 7 7 6 7 8 8 6 4 4
8 15 6 3 6 1 -1 4 3 4 4 4 3 3 3 4 5 5 4 4 4 4 6 4 6 5 7 7 8 8 6 4 5 4 7 7 6 7 9 7 5 4 5
5 6 7 8 4 1 1 5 2 6 5 4 4 4 3 3 4 4 4 3 3 4 6 4 5 4 6 7 8 9 6 5 4 6 7 6 6 8 8 6 5 5 7
2 -2 6 5 6 6 6 1 6 5 6 5 4 6 5 4 4 4 4 4 4 4 6 5 5 5 4 6 7 7 6 6 7 6 6 6 6 7 7 6 5 6 6
8 8 2 4 6 7 3 5 4 3 5 5 3 3 4 4 3 4 3 5 4 3 4 4 5 5 5 4 6 7 6 7 7 6 6 5 6 6 6 5 6 6 5
7 9 8 5 1 2 3 4 3 3 4 4 4 5 3 5 5 5 5 4 4 3 3 4 4 5 5 6 5 6 7 7 6 6 6 5 6 6 6 5 6 6 4
6 7 11 8 6 4 4 2 4 5 6 5 3 2 3 3 4 6 6 3 3 6 2 3 4 5 3 6 6 7 7 7 6 6 6 5 6 6 5 5 6 5 4
4 4 5 7 7 5 8 6 6 4 6 7 8 8 7 6 5 2 4 5 5 7 2 5 8 5 5 5 6 6 7 7 6 5 7 6 7 7 6 5 5 5 4
3 3 3 3 4 7 4 -0 3 5 4 1 2 0 -1 4 5 4 1 2 5 2 3 5 1 3 5 4 5 5 7 8 7 6 6 5 7 7 6 5 5 5 4
8 6 4 4 3 3 3 4 5 2 1 0 -1 -2 -1 -3 -2 2 5 7 2 4 2 2 1 3 4 4 4 5 5 6 7 7 7 5 6 7 7 5 5 5 4
9 8 10 6 3 3 3 3 3 3 1 1 1 2 4 5 3 1 -2 -0 6 4 1 5 5 4 4 4 4 4 5 5 6 7 6 7 6 7 7 5 5 5 4
9 10 9 10 10 5 3 3 2 2 3 4 3 2 2 2 3 4 1 0 3 -1 7 7 3 4 3 4 3 4 4 5 5 7 6 7 6 7 8 6 5 5 4
9 8 11 11 11 12 10 5 4 4 4 4 3 3 3 4 3 2 2 3 2 2 3 1 7 4 6 3 5 4 4 5 5 5 6 7 7 7 8 7 5 6 4
12 11 9 9 10 12 13 13 10 6 4 2 4 5 3 3 2 4 3 3 2 0 3 6 2 7 5 3 6 4 4 4 5 5 6 6 6 6 8 8 6 6 4
10 9 12 12 12 12 11 12 14 15 12 7 4 1 3 5 4 2 2 4 5 3 1 0 3 2 4 13 0 1 3 4 4 5 5 5 6 7 7 8 6 7 5
5 7 8 10 11 13 13 14 11 10 14 16 13 8 6 3 2 4 7 5 2 3 3 -0 -3 4 2 5 15 -5 -3 9 2 3 4 5 6 7 7 8 8 6 5
5 5 6 6 8 8 15 17 14 18 13 10 12 15 14 11 7 5 7 4 2 1 2 6 4 7 4 10 2 13 5 -1 5 4 6 4 6 7 8 8 8 6 6
21 19 18 17 15 13 14 11 15 17 13 14 12 10 10 11 15 9 7 9 10 11 11 9 8 -2 7 4 -5 6 2 -2 10 2 5 8 6 5 7 8 10 8 6
20 21 23 19 20 22 20 14 10 9 11 18 15 17 12 11 11 14 11 10 13 11 10 14 17 13 6 16 9 5 15 -0 3 3 10 -1 0 7 6 7 10 9 7
25 15 17 19 22 17 16 16 14 14 18 17 15 15 15 16 12 11 15 14 10 13 8 9 6 5 2 6 8 9 -1 8 7 11 -9 3 10 5 2 6 8 11 9
20 23 18 9 8 7 7 7 6 6 9 15 16 14 14 15 14 14 15 15 12 11 11 1 12 3 7 10 -4 -1 25 4 2 12 -11 2 28 5 11 5 8 9 11
Height
3164 3166 3168 3168 3169 3170 3170 3170 3171 3171 3172 3172 3171 3171 3171 3172 3172 3172 3173 3173 3172 3172 3170 3170 3170 3170 3170 3170 3170 3171 3170 3171 3171 3171 3171 3170 3169 3169 3168 3167 3167 3167 3166
3163 3165 3167 3168 3169 3169 3170 3170 3171 3172 3172 3172 3172 3172 3172 3172 3172 3173 3173 3173 3173 3173 3173 3172 3172 3172 3172 3172 3171 3172 3173 3172 3172 3172 3172 3171 3171 3170 3169 3169 3168 3168 3168
3161 3163 3165 3166 3168 3169 3170 3170 3171 3172 3172 3172 3173 3173 3173 3173 3173 3173 3173 3173 3174 3173 3173 3174 3173 3173 3172 3173 3173 3173 3173 3174 3173 3173 3173 3172 3172 3171 3170 3170 3170 3169 3169
3159 3161 3163 3165 3166 3168 3169 3170 3171 3172 3172 3173 3173 3173 3173 3173 3173 3173 3174 3173 3174 3174 3174 3174 3174 3174 3173 3173 3173 3174 3174 3174 3174 3174 3174 3173 3173 3173 3172 3171 3171 3171 3171
3156 3159 3161 3163 3165 3166 3168 3169 3170 3171 3171 3171 3172 3172 3173 3173 3173 3173 3174 3174 3174 3174 3174 3174 3174 3174 3174 3173 3173 3174 3175 3175 3174 3175 3175 3175 3174 3174 3173 3173 3172 3172 3172
3155 3158 3159 3161 3162 3163 3165 3167 3169 3170 3170 3171 3171 3172 3173 3173 3173 3173 3174 3174 3174 3173 3174 3174 3174 3174 3174 3174 3174 3174 3174 3175 3175 3174 3175 3175 3175 3175 3175 3175 3174 3174 3174
3154 3155 3157 3159 3160 3162 3164 3165 3167 3168 3169 3170 3170 3171 3172 3172 3172 3172 3172 3173 3173 3173 3174 3173 3174 3174 3174 3174 3175 3175 3174 3175 3175 3175 3175 3176 3176 3176 3176 3176 3176 3175 3175
3152 3154 3155 3157 3159 3160 3162 3164 3165 3166 3167 3168 3169 3170 3171 3170 3170 3171 3172 3172 3173 3173 3173 3173 3173 3173 3174 3174 3174 3175 3175 3175 3175 3175 3174 3175 3175 3176 3176 3176 3177 3176 3176
3150 3152 3153 3154 3156 3158 3160 3161 3163 3165 3165 3167 3167 3169 3169 3170 3170 3171 3172 3173 3172 3173 3173 3173 3173 3172 3172 3174 3174 3174 3174 3175 3174 3174 3174 3174 3175 3176 3176 3177 3177 3176 3176
3147 3149 3151 3152 3153 3155 3157 3159 3161 3162 3163 3164 3165 3166 3167 3167 3168 3169 3171 3172 3171 3172 3172 3172 3173 3172 3172 3172 3173 3173 3173 3174 3174 3174 3174 3174 3175 3175 3176 3177 3177 3177 3177
3144 3146 3147 3148 3150 3151 3154 3155 3157 3160 3161 3161 3163 3164 3165 3165 3166 3167 3169 3170 3170 3171 3171 3172 3173 3172 3172 3172 3172 3172 3173 3173 3173 3173 3174 3174 3174 3175 3175 3176 3177 3177 3177
3141 3143 3145 3146 3147 3148 3150 3151 3152 3155 3157 3158 3160 3160 3161 3163 3164 3165 3166 3166 3168 3169 3169 3170 3171 3171 3172 3172 3172 3173 3172 3172 3173 3173 3173 3174 3174 3175 3174 3175 3176 3177 3177
3135 3137 3140 3142 3143 3144 3145 3147 3148 3149 3151 3153 3155 3156 3158 3159 3160 3162 3162 3163 3165 3166 3167 3168 3169 3170 3170 3170 3171 3172 3172 3171 3171 3171 3173 3174 3174 3174 3174 3174 3175 3176 3177
3128 3131 3133 3134 3136 3138 3140 3142 3144 3145 3146 3148 3149 3151 3154 3156 3157 3158 3160 3161 3162 3163 3164 3166 3167 3168 3168 3168 3169 3169 3171 3170 3170 3170 3171 3172 3173 3174 3174 3174 3175 3175 3176
3120 3123 3125 3127 3128 3130 3132 3134 3137 3139 3141 3143 3144 3146 3148 3151 3153 3154 3155 3157 3159 3160 3161 3163 3163 3164 3166 3166 3166 3167 3168 3168 3169 3169 3169 3170 3170 3172 3173 3173 3174 3174 3175
3113 3113 3117 3117 3119 3121 3122 3125 3128 3129 3132 3135 3137 3140 3142 3145 3147 3150 3151 3152 3155 3155 3157 3159 3161 3161 3161 3163 3164 3164 3165 3165 3166 3166 3166 3167 3168 3169 3170 3172 3173 3173 3174
3102 3104 3105 3108 3109 3110 3112 3114 3116 3120 3123 3125 3129 3132 3135 3138 3141 3143 3146 3147 3149 3151 3151 3154 3156 3157 3157 3158 3160 3160 3161 3163 3163 3163 3163 3165 3166 3167 3168 3169 3170 3171 3172
3091 3091 3093 3095 3096 3098 3100 3102 3105 3108 3110 3113 3117 3121 3124 3128 3132 3136 3139 3141 3143 3144 3146 3148 3151 3152 3153 3154 3155 3157 3158 3159 3159 3160 3161 3161 3163 3163 3165 3166 3168 3169 3169
3079 3080 3079 3081 3083 3085 3087 3089 3091 3093 3097 3100 3104 3108 3113 3118 3123 3126 3129 3133 3135 3137 3138 3142 3145 3146 3147 3150 3152 3152 3153 3155 3156 3156 3157 3158 3158 3160 3161 3163 3165 3166 3167
3065 3065 3065 3066 3068 3071 3072 3073 3076 3080 3082 3086 3089 3095 3100 3106 3112 3116 3118 3122 3126 3128 3131 3134 3137 3139 3141 3144 3145 3147 3148 3150 3150 3151 3153 3154 3155 3155 3157 3159 3161 3163 3163
3054 3052 3053 3054 3055 3055 3056 3057 3059 3062 3068 3073 3077 3081 3086 3092 3098 3102 3105 3112 3116 3119 3123 3127 3130 3131 3135 3136 3137 3140 3141 3144 3144 3145 3147 3149 3150 3152 3153 3154 3156 3158 3159
3043 3042 3041 3041 3041 3042 3042 3044 3045 3048 3051 3056 3062 3067 3072 3077 3083 3087 3091 3101 3107 3110 3112 3116 3120 3123 3125 3127 3130 3134 3133 3135 3137 3139 3142 3144 3146 3147 3148 3150 3151 3153 3154
3030 3029 3028 3027 3028 3028 3029 3030 3032 3034 3034 3037 3043 3047 3054 3061 3068 3075 3082 3087 3094 3097 3100 3105 3110 3113 3117 3119 3121 3124 3125 3124 3130 3133 3136 3138 3140 3141 3143 3145 3146 3148 3150
3015 3014 3012 3012 3013 3014 3015 3016 3018 3021 3022 3027 3030 3035 3041 3047 3052 3059 3067 3072 3077 3083 3087 3092 3097 3102 3107 3107 3113 3116 3119 3119 3120 3126 3129 3131 3133 3135 3136 3139 3141 3142 3144
3004 3002 3001 3001 3002 3003 3003 3005 3006 3007 3011 3015 3015 3020 3026 3032 3039 3045 3052 3059 3065 3072 3077 3082 3086 3091 3096 3099 3102 3107 3109 3111 3115 3118 3120 3124 3124 3128 3129 3132 3134 3136 3137
2996 2994 2994 2995 2996 2996 2997 2997 2996 2996 2999 3000 3002 3006 3012 3020 3026 3032 3039 3046 3053 3060 3066 3072 3077 3081 3085 3090 3093 3097 3101 3104 3106 3110 3111 3115 3116 3120 3122 3123 3127 3129 3131